This is the latest recevied weather packets stored in our database for station/object EA1IDU-12. If no packets are shown the sender has not sent any weather packets the latest 10 day(s).
| Time | Temp. | Humidity | Pressure | Rain* | Wind** | Luminosity | Snow |
|---|---|---|---|---|---|---|---|
| 1788206110 | 16.11° C | 56% | 1030.9 hPa | - | - | - | - |
| 1788205210 | 16.67° C | 54% | 1030.7 hPa | - | - | - | - |
| 1788204310 | 17.22° C | 53% | 1030.5 hPa | - | - | - | - |
| 1788203409 | 17.78° C | 52% | 1030.3 hPa | - | - | - | - |
| 1788202509 | 18.33° C | 49% | 1030.1 hPa | - | - | - | - |
| 1788201609 | 18.89° C | 47% | 1030 hPa | - | - | - | - |
| 1788200709 | 20° C | 45% | 1030 hPa | - | - | - | - |
| 1788199809 | 21.11° C | 43% | 1030 hPa | - | - | - | - |
| 1788198908 | 21.67° C | 42% | 1029.9 hPa | - | - | - | - |
| 1788198008 | 23.33° C | 39% | 1029.9 hPa | - | - | - | - |
| 1788197108 | 24.44° C | 37% | 1029.8 hPa | - | - | - | - |
| 1788196208 | 25.56° C | 36% | 1029.9 hPa | - | - | - | - |
| 1788195321 | 26.11° C | 35% | 1030 hPa | - | - | - | - |
| 1788194408 | 24.44° C | 37% | 1030 hPa | - | - | - | - |
| 1788193507 | 25° C | 36% | 1029.9 hPa | - | - | - | - |
| 1788192607 | 25.56° C | 34% | 1029.9 hPa | - | - | - | - |
| 1788191707 | 25.56° C | 34% | 1029.9 hPa | - | - | - | - |
| 1788190807 | 27.22° C | 32% | 1030 hPa | - | - | - | - |
| 1788189907 | 28.89° C | 31% | 1030 hPa | - | - | - | - |
| 1788189007 | 28.33° C | 32% | 1030 hPa | - | - | - | - |
| 1788188106 | 27.22° C | 33% | 1030.3 hPa | - | - | - | - |
| 1788187206 | 26.67° C | 34% | 1030.3 hPa | - | - | - | - |
| 1788186306 | 25.56° C | 35% | 1030.4 hPa | - | - | - | - |
| 1788185406 | 26.11° C | 35% | 1030.4 hPa | - | - | - | - |
| 1788184506 | 26.67° C | 34% | 1030.4 hPa | - | - | - | - |
* Rain since midnight (hover to see other rain measurements)
** Current wind speed in m/s (hover to see current wind gust speed)